Ottumwa, IA

3:02 AM CDT on April 29, 2017 (GMT -0500)
Ottumwa Industrial

Weather History for KOTM - March, 2013

Change the Weather History Date:

Friday, March 29, 2013

  Actual Average Record
Temperature  
Mean Temperature 46 °F 44 °F  
Max Temperature 61 °F 55 °F 88 °F (1986)
Min Temperature 31 °F 33 °F 9 °F (1969)
Degree Days  
Heating Degree Days 19 21  
Month to date heating degree days 974 771  
Since 1 July heating degree days 5501 5656  
Cooling Degree Days 0 0  
Month to date cooling degree days 0 0  
Year to date cooling degree days 0 0  
Moisture  
Dew Point 30 °F    
Average Humidity 55    
Maximum Humidity 78    
Minimum Humidity 32    
Precipitation  
Precipitation 0.00 in 0.08 in 0.94 in (1979)
Month to date precipitation 1.99 2.06  
Year to date precipitation 5.32 4.24  
Sea Level Pressure  
Sea Level Pressure 30.24 in    
Wind  
Wind Speed 8 mph (ESE)    
Max Wind Speed 16 mph    
Max Gust Speed 18 mph    
Visibility 10 miles    
Events      
T = Trace of Precipitation, MM = Missing Value Source: NWS Daily Summary

Daily Weather History Graph

Daily Weather History Graph

Search for Another Location

Airport or City:

Trip Planner

Search our weather history database for the weather conditions in past years. The results will help you decide how hot, cold, wet, or windy it might be!

Date:

Astronomy

Mar. 29, 2013 Rise Set
Actual Time 6:57 AM CDT 7:31 PM CDT
Civil Twilight 6:29 AM CDT 7:59 PM CDT
Nautical Twilight 5:57 AM CDT 8:32 PM CDT
Astronomical Twilight 5:23 AM CDT 9:06 PM CDT
Moon 10:34 PM CDT 8:05 AM CDT
Length of Visible Light 13h 29m
Length of Day
12h 34m
Waning Gibbous, 93% of the Moon is Illuminated
Mar 29
Waning Gibbous
Apr 2
Last Quarter
Apr 10
New
Apr 18
First Quarter
Apr 25
Full

Hourly Weather History & Observations

Time (CDT) Temp. Windchill Dew Point Humidity Pressure Visibility Wind Dir Wind Speed Gust Speed Precip Events Conditions
12:53 AM 39.9 °F 36.7 °F 30.9 °F 70% 30.28 in 10.0 mi SE 4.6 mph - N/A   Overcast
1:53 AM 37.0 °F 33.3 °F 30.0 °F 76% 30.27 in 10.0 mi ESE 4.6 mph - N/A   Clear
2:53 AM 35.1 °F 31.0 °F 28.9 °F 78% 30.26 in 10.0 mi East 4.6 mph - N/A   Clear
3:53 AM 36.0 °F 30.3 °F 27.0 °F 70% 30.25 in 10.0 mi East 6.9 mph - N/A   Clear
4:53 AM 33.1 °F 27.7 °F 26.1 °F 75% 30.25 in 10.0 mi East 5.8 mph - N/A   Clear
5:53 AM 33.1 °F 27.7 °F 26.1 °F 75% 30.25 in 10.0 mi East 5.8 mph - N/A   Clear
6:53 AM 32.0 °F 26.4 °F 26.1 °F 79% 30.27 in 10.0 mi ENE 5.8 mph - N/A   Clear
7:53 AM 33.1 °F 26.9 °F 27.0 °F 78% 30.29 in 10.0 mi East 6.9 mph - N/A   Clear
8:53 AM 37.9 °F 32.1 °F 30.0 °F 73% 30.30 in 10.0 mi East 8.1 mph - N/A   Clear
9:53 AM 45.0 °F 40.1 °F 33.1 °F 63% 30.29 in 10.0 mi ESE 9.2 mph - N/A   Clear
10:53 AM 51.1 °F - 33.1 °F 50% 30.29 in 10.0 mi ESE 11.5 mph - N/A   Clear
11:53 AM 55.0 °F - 34.0 °F 45% 30.28 in 10.0 mi SE 11.5 mph - N/A   Clear
12:53 PM 55.9 °F - 34.0 °F 44% 30.26 in 10.0 mi ESE 9.2 mph - N/A   Clear
1:53 PM 57.9 °F - 33.1 °F 39% 30.25 in 10.0 mi ESE 11.5 mph - N/A   Clear
2:53 PM 59.0 °F - 33.1 °F 38% 30.22 in 10.0 mi Variable 6.9 mph - N/A   Clear
3:53 PM 59.0 °F - 30.9 °F 35% 30.20 in 10.0 mi ESE 10.4 mph - N/A   Clear
4:53 PM 60.1 °F - 30.9 °F 33% 30.19 in 10.0 mi ESE 3.5 mph - N/A   Clear
5:53 PM 59.0 °F - 30.9 °F 35% 30.19 in 10.0 mi SE 10.4 mph - N/A   Clear
6:53 PM 55.0 °F - 32.0 °F 42% 30.18 in 10.0 mi ESE 8.1 mph - N/A   Clear
7:53 PM 46.9 °F - 30.9 °F 54% 30.19 in 10.0 mi SE 5.8 mph - N/A   Clear
8:53 PM 46.9 °F - 30.0 °F 52% 30.19 in 10.0 mi SE 5.8 mph - N/A   Clear
9:53 PM 43.0 °F 38.2 °F 30.0 °F 60% 30.19 in 10.0 mi SE 8.1 mph - N/A   Clear
10:53 PM 45.0 °F 41.8 °F 30.9 °F 58% 30.18 in 10.0 mi SSE 5.8 mph - N/A   Clear
11:53 PM 43.0 °F 38.2 °F 30.9 °F 62% 30.17 in 10.0 mi SE 8.1 mph - N/A   Clear